Regional Weather Roundup
Issued by NWS

Home | Current Version | Previous Version | Graphics & Text | Print | Product List | Glossary On
Versions: 1 2 3 4 5 6 7 8 9 10 11 12 13 14 15 16 17 18 19 20 21 22 23 24 25 26 27 28 29 30 31 32 33 34 35 36 37 38 39 40 41 42 43 44 45 46 47 48 49 50
000
ASUS45 KBOU 250207
RWRCO

WEATHER ROUNDUP FOR COLORADO
NATIONAL WEATHER SERVICE DENVER/BOULDER CO
800 PM MDT SUN SEP 24 2017

NOTE: "FAIR" INDICATES FEW OR NO CLOUDS BELOW 12000 FEET WITH NO
SIGNIFICANT WEATHER AND/OR OBSTRUCTIONS TO VISIBILITY.

COZ001>005-013-030-031-250300-
...NORTHWEST COLORADO...

CITY           SKY/WX    TMP DP  RH WIND       PRES   REMARKS
CRAIG          FAIR      44  29  55 W8        30.06R
HAYDEN         CLOUDY    45  29  53 W10       30.06R
MEEKER         FAIR      45  31  58 VRB3      30.05R
RABBIT EARS PA CLOUDY    30  27  86 W7        30.13S WCI  23
STEAMBOAT SPGS CLOUDY    43  33  66 W3        30.05R
WALDEN         CLOUDY    36  32  87 W6        30.12R
$$

COZ006>008-011-250300-
...WEST CENTRAL VALLEYS...

CITY           SKY/WX    TMP DP  RH WIND       PRES   REMARKS
GRAND JUNCTION FAIR      52  29  41 NW10      29.99R
MONTROSE       FAIR      54  13  19 NW7       30.04R
EAGLE          CLOUDY    51  23  33 CALM      30.06R
RIFLE          FAIR      53  28  38 W10       30.01R
DELTA          NOT AVBL
NUCLA          FAIR      50  18  27 SW7       30.06S
$$

COZ017>023-064>068-250300-
...SOUTHWEST COLORADO...

CITY           SKY/WX    TMP DP  RH WIND       PRES   REMARKS
DURANGO        FAIR      51  20  29 NW10      30.03R
CORTEZ         FAIR      43  29  57 SE3       30.03R
PAGOSA SPRINGS FAIR      48  24  38 NW6       30.06R
TELLURIDE      FAIR      41  16  36 W3        30.14S
WOLF CREEK PAS FAIR      28  19  69 S12       30.25R WCI  18
$$

COZ009-010-012-014-032>034-037-058>063-250300-
...CENTRAL COLORADO...

CITY           SKY/WX    TMP DP  RH WIND       PRES   REMARKS
ASPEN          MOCLDY    45  21  38 NE3       30.06R
BUENA VISTA    FAIR      49  20  31 SW9       30.02R
COPPER MTN     CLOUDY    32  23  69 MISG      30.19R
BERTHOUD PASS  HVY SNOW  25  16  68 N13G23    30.19R VSB<1/4 WCI  13
COTTONWOOD PAS FAIR      48  21  34 SW6G17    30.11R
GUNNISON       FAIR      46  20  35 W7        30.08R
KREMMLING      CLOUDY    48  32  53 N9        30.08R
LEADVILLE      FAIR      36  23  59 NW8       30.10R
MONARCH PASS   FAIR      30  21  69 SW18G25   30.29R WCI  18
SALIDA         FAIR      54  24  32 S3        30.10R
SUNLIGHT       FAIR      28  19  69 SW8G20    30.18R WCI  20
WILKERSON PASS FAIR      36  25  64 S12G29    30.17R
$$

COZ069>075-250300-
...SAN LUIS VALLEY/SANGRE DE CRISTO MOUNTAINS...

CITY           SKY/WX    TMP DP  RH WIND       PRES   REMARKS
ALAMOSA        FAIR      48  25  40 W7        30.02R
DEL NORTE      FAIR      47  20  34 W8        30.06R
LA VETA PASS   FAIR      43  21  42 S10G22    30.26R
SAGUACHE       FAIR      48  18  29 W9        30.06R
$$

COZ035-036-038>040-250300-
...NORTHERN COLORADO FRONT RANGE...

CITY           SKY/WX    TMP DP  RH WIND       PRES   REMARKS
DENVER INTL AP CLOUDY    48  45  89 E10       30.01R VSB 1/2
DMNS CITY PARK   N/A     47  47 100 N3G14     30.03R
AURORA         CLOUDY    47  47 100 NE6       30.02R FOG
FRONT RANGE AP CLOUDY    48  48 100 NE14      30.01R FOG
ERIE MUNI ARPT DRIZZLE   48  47  96 N3        30.08R
BOULDER MUN AP CLOUDY    46  46 100 CALM      30.03R FOG
CENTENNIAL     DRIZZLE   48  47  96 N5        30.01R
BROOMFIELD     DRZL/FOG  46  46 100 N6        30.03R VSB 3/4
FORT COLLINS   LGT RAIN  47  46  97 E6        30.04R FOG
LONGMONT       LGT RAIN  49  47  93 CALM      30.04R
$$

COZ041-046-047-076>085-087-088-250300-
...PIKES PEAK/PALMER DIVIDE AND SOUTHERN FOOTHILLS...

CITY           SKY/WX    TMP DP  RH WIND       PRES   REMARKS
COLO. SPRINGS  CLOUDY    50  48  93 E7        30.02R FOG
A. F. ACADEMY  CLOUDY    50  46  86 E7        30.01R
SCHRIEVER AFB  MOCLDY    48  46  95 MISG      30.02R
CHEYENNE MTN     N/A     47  46  98 SE9       29.97S
ELLICOTT       CLOUDY   N/A N/A N/A E9        30.00R
FALCON         MOCLDY    46  45  97 E3        30.04S
FORT CARSON    DRIZZLE   50  49  98 SE6       29.99S
LIMON            N/A    N/A N/A N/A MISG        N/A
MONUMENT HILL  CLOUDY    45  43  93 S8        30.04R
CANON CITY     CLOUDY    54  52  94 E3        29.98R
WALSENBURG     CLOUDY    54  52  94 NE6       30.00R
TRINIDAD       CLOUDY    53  52  96 NE9       29.99R FOG
$$

COZ042>045-048>051-090-091-250300-
...NORTHEAST COLORADO...

CITY           SKY/WX    TMP DP  RH WIND       PRES   REMARKS
GREELEY ARPT   CLOUDY    48  47  96 E8        30.03R
AKRON          CLOUDY    47  46  97 E10       30.00R FOG
BURLINGTON     CLOUDY    52  51  97 NE12      29.97S FOG
WRAY           CLOUDY   N/A N/A N/A NE12      30.00R HAZE
YUMA           CLOUDY    46  46 100 NE10      30.00R FOG
STERLING       CLOUDY    50  48  93 E6        30.00R
HOLYOKE        CLOUDY    54  52  94 NE9       30.01R
FORT MORGAN    CLOUDY    48  46  92 E7        30.02R
$$

COZ086-089-092>099-250300-
...SOUTHEAST COLORADO...

CITY           SKY/WX    TMP DP  RH WIND       PRES   REMARKS
PUEBLO         CLOUDY    55  51  86 E6        29.96R
LA JUNTA       LGT RAIN  54  53  97 N12       29.95R FOG
LAMAR          CLOUDY    56  54  93 NE12      29.90R
SPRINGFIELD      N/A     57  32  38 NE10      29.90R
$$



USA.gov is the U.S. government's official web portal to all federal, state and local government web resources and services.